Orbital Elements at Epoch 2459200.5 (2020-Dec-17.0) TDB
Reference: JPL 20 (heliocentric ecliptic J2000)
Element | Value | Uncertainty (1-sigma) | Units |
e | .2786958717560555 | 4.3189e-08 | |
a | 3.075618407912244 | 2.3637e-08 | au |
q | 2.21845625453017 | 1.4449e-07 | au |
i | 2.366838288355032 | 5.4663e-06 | deg |
node | 73.9031090493078 | 0.0001597 | deg |
peri | 215.1429785956313 | 0.00016036 | deg |
M | 341.4012376084031 | 1.6424e-05 | deg |
tp | 2459302.283797360868 (2021-Mar-28.78379736) | 9.0702e-05 | TDB |
period | 1970.140070527895 5.39 | 2.2712e-05 6.218e-08 | d yr |
n | .1827281244543891 | 2.1065e-09 | deg/d |
Q | 3.932780561294318 | 3.0225e-08 | au |
|
| | Orbit Determination Parameters
Additional Information
|